Location: Pilipovskiye Korichintsy
(49.1833°N, 27.4667°E)
Time: 12:35:46
(UTC+00:00)

Cosmos 1908 Rocket - Pass Details

Date: 14 July 2020
Orbit: 605 x 633 km, 82.5° (Epoch: 07 August)

Event Time Altitude Azimuth Distance (km) Brightness Sun altitude
Exits shadow 01:28:44 - 193° (SSW) 2,441 6.1 -7.3°
Reaches altitude 10° 01:29:48 10° 194° (SSW) 2,013 5.7 -7.1°
Maximum altitude 01:34:16 76° 280° (W) 658 3.6 -6.6°
Drops below altitude 10° 01:38:46 10° 7° (N) 2,023 7.0 -6.1°
Sets 01:41:01 0° 9° (N) 2,932 8.0 -5.8°
